Hourly Weather Mataro

Today, 16 June, Wednesday

Time Temperature Precipitation Wind Pressure Humidity
00:00 +26°C° 0 mm 1 mps 749 mmHg 44%
01:00 +26°C° 0 mm 1 mps 748 mmHg 44%
02:00 +26°C° 0 mm 1 mps 748 mmHg 44%
03:00 +25°C° 0 mm 1 mps 748 mmHg 44%
04:00 +26°C° 0 mm 1 mps 748 mmHg 44%
05:00 +24°C° 0 mm 0 mps 748 mmHg 44%
06:00 +27°C° 0 mm 1 mps 748 mmHg 43%
07:00 +29°C° 0 mm 1 mps 748 mmHg 39%
08:00 +30°C° 0 mm 2 mps 748 mmHg 36%
09:00 +31°C° 0 mm 2 mps 748 mmHg 32%
10:00 +33°C° 0 mm 3 mps 748 mmHg 32%
11:00 +34°C° 0 mm 3 mps 748 mmHg 31%
12:00 +34°C° 0 mm 4 mps 748 mmHg 32%
13:00 +34°C° 0 mm 3 mps 747 mmHg 34%
14:00 +33°C° 0 mm 3 mps 747 mmHg 36%
15:00 +33°C° 0 mm 3 mps 747 mmHg 39%
16:00 +30°C° 0 mm 3 mps 747 mmHg 42%
17:00 +29°C° 0 mm 3 mps 746 mmHg 46%
18:00 +28°C° 0 mm 3 mps 746 mmHg 50%
19:00 +27°C° 0 mm 3 mps 746 mmHg 55%
20:00 +26°C° 0 mm 3 mps 746 mmHg 59%
21:00 +25°C° 0 mm 2 mps 747 mmHg 64%
22:00 +24°C° 0 mm 2 mps 747 mmHg 63%
23:00 +24°C° 0 mm 3 mps 747 mmHg 62%

Tomorrow, 17 June, Thursday

Time Temperature Precipitation Wind Pressure Humidity
00:00 +24°C° 0 mm 3 mps 747 mmHg 61%
01:00 +24°C° 0 mm 3 mps 747 mmHg 58%
02:00 +24°C° 0 mm 3 mps 746 mmHg 55%
03:00 +23°C° 0 mm 4 mps 746 mmHg 52%
04:00 +23°C° 0 mm 4 mps 746 mmHg 55%
05:00 +23°C° 0 mm 4 mps 746 mmHg 57%
06:00 +23°C° 0 mm 4 mps 746 mmHg 59%
07:00 +25°C° 0 mm 4 mps 746 mmHg 59%
08:00 +26°C° 0 mm 4 mps 746 mmHg 59%
09:00 +27°C° 0 mm 4 mps 746 mmHg 59%
10:00 +27°C° 0.1 mm 4 mps 746 mmHg 62%
11:00 +27°C° 0.1 mm 5 mps 746 mmHg 65%
12:00 +26°C° 0.1 mm 5 mps 746 mmHg 68%
13:00 +26°C° 0.2 mm 5 mps 745 mmHg 70%
14:00 +26°C° 0.2 mm 4 mps 745 mmHg 72%
15:00 +26°C° 0.2 mm 4 mps 745 mmHg 74%
16:00 +26°C° 0.4 mm 4 mps 745 mmHg 78%
17:00 +26°C° 0.4 mm 3 mps 745 mmHg 82%
18:00 +25°C° 0.4 mm 2 mps 745 mmHg 85%
19:00 +25°C° 0.3 mm 2 mps 746 mmHg 87%
20:00 +24°C° 0.3 mm 2 mps 746 mmHg 89%
21:00 +23°C° 0.3 mm 1 mps 746 mmHg 90%
22:00 +23°C° 0 mm 2 mps 746 mmHg 90%
23:00 +23°C° 0 mm 2 mps 746 mmHg 90%

Day after tomorrow, 18 June, Friday

Time Temperature Precipitation Wind Pressure Humidity
00:00 +21°C° 0 mm 2 mps 746 mmHg 90%
01:00 +21°C° 0 mm 2 mps 746 mmHg 90%
02:00 +21°C° 0 mm 3 mps 746 mmHg 89%
03:00 +21°C° 0 mm 3 mps 747 mmHg 89%
04:00 +21°C° 0 mm 3 mps 747 mmHg 86%
05:00 +21°C° 0 mm 3 mps 747 mmHg 84%
06:00 +23°C° 0 mm 2 mps 747 mmHg 81%
07:00 +25°C° 0 mm 2 mps 747 mmHg 69%
08:00 +27°C° 0 mm 2 mps 748 mmHg 58%
09:00 +29°C° 0 mm 2 mps 748 mmHg 46%
10:00 +30°C° 0 mm 2 mps 748 mmHg 46%
11:00 +30°C° 0 mm 3 mps 748 mmHg 46%
12:00 +31°C° 0 mm 3 mps 748 mmHg 47%
13:00 +30°C° 0 mm 3 mps 748 mmHg 47%
14:00 +30°C° 0 mm 3 mps 748 mmHg 48%
15:00 +30°C° 0 mm 2 mps 748 mmHg 48%
16:00 +30°C° 0 mm 2 mps 748 mmHg 51%
17:00 +29°C° 0 mm 2 mps 748 mmHg 54%
18:00 +28°C° 0 mm 2 mps 748 mmHg 57%
19:00 +26°C° 0 mm 2 mps 748 mmHg 64%
20:00 +25°C° 0 mm 2 mps 749 mmHg 72%
21:00 +24°C° 0 mm 1 mps 749 mmHg 79%
22:00 +23°C° 0 mm 2 mps 749 mmHg 78%
23:00 +23°C° 0 mm 2 mps 749 mmHg 76%

19 June, Saturday

Time Temperature Precipitation Wind Pressure Humidity
00:00 +23°C° 0 mm 2 mps 749 mmHg 75%
01:00 +23°C° 0 mm 2 mps 748 mmHg 71%
02:00 +23°C° 0 mm 2 mps 748 mmHg 68%
03:00 +23°C° 0 mm 2 mps 747 mmHg 65%
04:00 +24°C° 0 mm 2 mps 747 mmHg 62%
05:00 +24°C° 0 mm 3 mps 747 mmHg 59%
06:00 +25°C° 0 mm 3 mps 747 mmHg 57%
07:00 +25°C° 1.5 mm 3 mps 747 mmHg 60%
08:00 +26°C° 1.5 mm 4 mps 747 mmHg 64%
09:00 +26°C° 1.5 mm 4 mps 747 mmHg 68%
10:00 +27°C° 0.1 mm 4 mps 748 mmHg 62%
11:00 +29°C° 0.1 mm 4 mps 748 mmHg 57%
12:00 +30°C° 0.1 mm 4 mps 748 mmHg 52%
13:00 +30°C° 0 mm 4 mps 748 mmHg 52%
14:00 +30°C° 0 mm 4 mps 747 mmHg 52%
15:00 +30°C° 0 mm 4 mps 747 mmHg 52%
16:00 +29°C° 0 mm 5 mps 747 mmHg 55%
17:00 +29°C° 0 mm 5 mps 746 mmHg 59%
18:00 +28°C° 0 mm 5 mps 746 mmHg 62%
19:00 +27°C° 0 mm 4 mps 746 mmHg 70%
20:00 +26°C° 0 mm 3 mps 746 mmHg 79%
21:00 +24°C° 0 mm 2 mps 747 mmHg 87%
22:00 +24°C° 0 mm 2 mps 746 mmHg 87%
23:00 +24°C° 0 mm 2 mps 746 mmHg 88%

20 June, Sunday

Time Temperature Precipitation Wind Pressure Humidity
00:00 +24°C° 0 mm 1 mps 746 mmHg 88%
01:00 +24°C° 0.1 mm 1 mps 745 mmHg 87%
02:00 +24°C° 0.1 mm 2 mps 745 mmHg 87%
03:00 +24°C° 0.1 mm 2 mps 745 mmHg 87%
04:00 +24°C° 0.1 mm 2 mps 745 mmHg 85%
05:00 +25°C° 0.1 mm 3 mps 745 mmHg 83%
06:00 +25°C° 0.1 mm 3 mps 745 mmHg 81%
07:00 +26°C° 0 mm 4 mps 745 mmHg 69%
08:00 +28°C° 0 mm 4 mps 745 mmHg 56%
09:00 +30°C° 0 mm 4 mps 745 mmHg 43%
10:00 +30°C° 0 mm 5 mps 745 mmHg 41%
11:00 +32°C° 0 mm 5 mps 745 mmHg 38%
12:00 +33°C° 0 mm 6 mps 745 mmHg 36%
13:00 +33°C° 0 mm 6 mps 744 mmHg 36%
14:00 +32°C° 0 mm 6 mps 744 mmHg 36%
15:00 +32°C° 0 mm 6 mps 744 mmHg 36%
16:00 +30°C° 0 mm 6 mps 744 mmHg 38%
17:00 +29°C° 0 mm 5 mps 744 mmHg 41%
18:00 +29°C° 0 mm 5 mps 744 mmHg 44%
19:00 +27°C° 0 mm 5 mps 744 mmHg 48%
20:00 +26°C° 0 mm 4 mps 744 mmHg 52%
21:00 +25°C° 0 mm 4 mps 745 mmHg 56%
22:00 +23°C° 0 mm 4 mps 744 mmHg 59%
23:00 +23°C° 0 mm 5 mps 744 mmHg 63%

21 June, Monday

Time Temperature Precipitation Wind Pressure Humidity
00:00 +22°C° 0 mm 5 mps 744 mmHg 67%
01:00 +22°C° 0 mm 4 mps 744 mmHg 66%
02:00 +22°C° 0 mm 4 mps 744 mmHg 66%
03:00 +21°C° 0 mm 3 mps 744 mmHg 66%
04:00 +22°C° 0 mm 3 mps 744 mmHg 60%
05:00 +24°C° 0 mm 3 mps 744 mmHg 55%
06:00 +25°C° 0 mm 3 mps 744 mmHg 49%
07:00 +26°C° 0 mm 3 mps 744 mmHg 44%
08:00 +28°C° 0 mm 4 mps 745 mmHg 38%
09:00 +30°C° 0 mm 5 mps 745 mmHg 32%
10:00 +30°C° 0 mm 5 mps 745 mmHg 32%
11:00 +32°C° 0 mm 6 mps 745 mmHg 32%
12:00 +33°C° 0 mm 7 mps 745 mmHg 32%
13:00 +33°C° 0 mm 7 mps 745 mmHg 33%
14:00 +33°C° 0 mm 7 mps 745 mmHg 33%
15:00 +32°C° 0 mm 6 mps 745 mmHg 34%
16:00 +32°C° 0 mm 6 mps 745 mmHg 36%
17:00 +30°C° 0 mm 6 mps 745 mmHg 38%
18:00 +29°C° 0 mm 5 mps 745 mmHg 41%
19:00 +28°C° 0 mm 5 mps 745 mmHg 44%
20:00 +27°C° 0 mm 4 mps 746 mmHg 48%
21:00 +25°C° 0 mm 4 mps 746 mmHg 52%
22:00 +25°C° 0 mm 3 mps 746 mmHg 51%
23:00 +24°C° 0 mm 3 mps 746 mmHg 51%
Show more